Regional Weather Roundup
Issued by NWS

Home | Current Version | Previous Version | Graphics & Text | Print | Product List | Glossary On
Versions: 1 2 3 4 5 6 7 8 9 10 11 12 13 14 15 16 17 18 19 20 21 22 23 24 25 26 27 28 29 30 31 32 33 34 35 36 37 38 39 40 41 42 43 44 45 46 47 48 49 50
000
ASUS45 KPSR 032010
RWRAZ

ARIZONA HOURLY REGIONAL WEATHER ROUNDUP
NATIONAL WEATHER SERVICE PHOENIX AZ
100 PM MST THU SEP 03 2015

NOTE: FAIR INDICATES FEW OR NO CLOUDS BELOW 12,000 FEET WITH NO
SIGNIFICANT WEATHER AND/OR OBSTRUCTIONS TO VISIBILITY.

AZZ001>003-036-032100-
NORTHWEST ARIZONA

CITY           SKY/WX    TMP DP  RH WIND       PRES   REMARKS
BULLHEAD CITY  SUNNY    100  32   9 S20G25    29.75F
KINGMAN        SUNNY     93  33  12 SW23G29   29.94F
$$

AZZ004>008-015-016-018-032100-
NORTH CENTRAL ARIZONA

CITY           SKY/WX    TMP DP  RH WIND       PRES   REMARKS
GRAND CANYON   SUNNY     77  38  24 SW15G28   30.18F
WILLIAMS       SUNNY     75  37  25 SW12G23   30.24F
PRESCOTT       MOSUNNY   82  43  25 SW13G25   30.09F
FLAGSTAFF      MOSUNNY   71  44  37 SW16      30.23F
PAYSON         PTSUNNY   81  52  36 W8        30.12F
PAGE           SUNNY     87  37  17 SW7       29.98F
$$

AZZ009>014-017-032100-
NORTHEAST ARIZONA

CITY           SKY/WX    TMP DP  RH WIND       PRES   REMARKS
WINSLOW        MOSUNNY   79  59  50 SE7       30.07F THUNDER
SAINT JOHNS    TSTM      66  59  78 S18       30.14F
WINDOW ROCK    MOSUNNY   78  43  28 W14       30.19F
SHOW LOW       MOSUNNY   73  48  40 W14       30.18F
$$

AZZ023-032100-
GREATER PHOENIX AREA

CITY           SKY/WX    TMP DP  RH WIND       PRES   REMARKS
PHOENIX        MOSUNNY   98  42  14 SE6       29.81F
BUCKEYE        SUNNY     97  43  15 SE6       29.81F
GLENDALE       PTSUNNY   99  43  14 SE6       29.83F
LUKE AFB       SUNNY     98  47  17 VRB5      29.80F
DEER VALLEY    MOSUNNY   96  46  18 SE5       29.83F
SCOTTSDALE     SUNNY     96  47  18 S9        29.86F
MESA-FALCON    PTSUNNY   99  45  15 SW9       29.83F
MESA-GATEWAY   PTSUNNY   97  52  21 W6        29.85F
CHANDLER       PTSUNNY   97  50  20 SE6       29.83F
$$

AZZ027-028-032100-
SOUTHWEST MARICOPA COUNTY AND PINAL COUNTY

CITY           SKY/WX    TMP DP  RH WIND       PRES   REMARKS
CASA GRANDE    MOSUNNY   90  63  40 S31G40    29.86R
GILA BEND      MOSUNNY  101  48  16 VRB7      29.77F
$$

AZZ503-504-507>509-032100-
SOUTHEAST ARIZONA

CITY           SKY/WX    TMP DP  RH WIND       PRES   REMARKS
TUCSON         PTSUNNY   84  63  49 NW12      29.96S
DAVIS-MONTHAN  MOSUNNY   88  65  46 NW16      29.94F
RYAN FIELD     PTSUNNY   75  72  88 N8        29.97F
NOGALES        CLOUDY    82  57  42 S6        30.03F
SIERRA VISTA   LGT RAIN  77  59  53 SE10      30.11F
DOUGLAS        CLOUDY    78  57  48 S12       30.10R
SAFFORD        SUNNY     84  57  39 CALM      29.98F
$$

AZZ020-021-025-026-031-032100-
SOUTHWEST ARIZONA

CITY           SKY/WX    TMP DP  RH WIND       PRES   REMARKS
YUMA           MOSUNNY   99  57  24 SW8       29.74F
$$

CAZ031-033-041-043-047-048-061-032100-
SOUTHERN CALIFORNIA

CITY           SKY/WX    TMP DP  RH WIND       PRES   REMARKS
DOWNTOWN L.A.  SUNNY     78  55  44 VRB3      29.88F
L.A. AIRPORT   MOSUNNY   74  58  57 W14       29.90F
SAN DIEGO      MOSUNNY   76  57  51 W6        29.92F
BURBANK        SUNNY     77  55  46 SE8G17    29.89F
ONTARIO        MOSUNNY   75  56  51 SW3       29.90F
RIVERSIDE      SUNNY     77  56  48 VRB6      29.90F
PALM SPRINGS   SUNNY     98  36  11 VRB6      29.77F
EL CENTRO NAS  MOSUNNY   99  48  17 S7G17     29.74F
IMPERIAL       SUNNY    100  45  15 VRB3      29.72F
BLYTHE         SUNNY     98  58  26 S8        29.75F
NEEDLES        SUNNY    103  27   7 SW21G26   29.77F
$$

NVZ020-UTZ003-032100-
SOUTHERN NEVADA-UTAH

CITY           SKY/WX    TMP DP  RH WIND       PRES   REMARKS
LAS VEGAS      MOSUNNY   96  33  11 VRB7G17   29.76F
SALT LAKE CITY PTSUNNY   87  39  18 S25G31    29.86F
$$

NMZ009-TXZ055-032100-
NEW MEXICO-WEST TEXAS

CITY           SKY/WX    TMP DP  RH WIND       PRES   REMARKS
ALBUQUERQUE    PTSUNNY   82  46  28 CALM      30.11F
EL PASO        PTSUNNY   91  50  24 W12G17    30.01F
$$


........................KEY........................
SKY/WX - SKY CONDITION/WEATHER
TMP    - TEMPERATURE IN FAHRENHEIT
DP     - DEW POINT IN FAHRENHEIT
RH     - RELATIVE HUMIDITY IN PERCENT
WIND   - DIRECTION AND SPEED IN MILES PER HOUR (MPH)
VRB    - VARIABLE WIND DIRECTION
PRES   - MEAN SEA LEVEL PRESSURE IN INCHES OF MERCURY
         F - FALLING PRESSURE   R - RISING PRESSURE
         S - STEADY PRESSURE
VSB    - VISIBILITY IN MILES
HX     - HEAT INDEX IN FAHRENHEIT
WCI    - WIND CHILL INDEX IN FAHRENHEIT
TC     - TEMPERATURE IN CELSIUS WHICH IS ALSO KNOWN AS
         TEMPERATURE IN CENTIGRADE
AFB    - AIR FORCE BASE
         LUKE AFB IS LUKE AIR FORCE BASE
         DAVIS-MONTHAN IS DAVIS-MONTHAN AIR FORCE BASE
NAS    - NAVAL AIR STATION
         EL CENTRO NAS IS EL CENTRO NAVAL AIR STATION
N/A    - NOT AVAILABLE




USA.gov is the U.S. government's official web portal to all federal, state and local government web resources and services.